| time (UTC) | temp F | wind direction | speed MPH | gust MPH | rain 1hr in | rain 24hr in | rain mn in | humidity % | barometer mb |
| 20260904215958 | 85 | 199 | 6.0 | 8.0 | 0.00 | 0.00 | 0.00 | 85 | 1020.6 |
| 20260904215454 | 85 | 174 | 3.0 | 7.0 | 0.00 | 0.00 | 0.00 | 87 | 1020.9 |
| 20260904214948 | 86 | 171 | 4.0 | 5.0 | 0.00 | 0.00 | 0.00 | 86 | 1020.7 |
| 20260904214443 | 86 | 185 | 3.0 | 7.0 | 0.00 | 0.00 | 0.00 | 86 | 1020.6 |
| 20260904213939 | 86 | 179 | 3.0 | 5.0 | 0.00 | 0.00 | 0.00 | 85 | 1020.5 |
| 20260904213432 | 86 | 166 | 5.0 | 7.0 | 0.00 | 0.00 | 0.00 | 84 | 1020.6 |
| 20260904212928 | 86 | 156 | 5.0 | 6.0 | 0.00 | 0.00 | 0.00 | 84 | 1020.6 |
| 20260904212428 | 85 | 182 | 4.0 | 5.0 | 0.00 | 0.00 | 0.00 | 87 | 1020.3 |
| 20260904211923 | 84 | 176 | 3.0 | 6.0 | 0.00 | 0.00 | 0.00 | 87 | 1020.6 |
| 20260904211418 | 84 | 167 | 3.0 | 3.0 | 0.00 | 0.00 | 0.00 | 88 | 1020.4 |
| 20260904210913 | 84 | 153 | 2.0 | 5.0 | 0.00 | 0.00 | 0.00 | 87 | 1020.6 |
| 20260904210412 | 84 | 164 | 5.0 | 7.0 | 0.00 | 0.00 | 0.00 | 87 | 1020.6 |
| 20260904205908 | 83 | 175 | 4.0 | 6.0 | 0.00 | 0.00 | 0.00 | 86 | 1020.6 |
| 20260904205404 | 83 | 165 | 4.0 | 7.0 | 0.00 | 0.00 | 0.00 | 85 | 1020.7 |
| 20260904204901 | 84 | 158 | 4.0 | 8.0 | 0.00 | 0.00 | 0.00 | 84 | 1020.6 |
| 20260904204357 | 84 | 123 | 6.0 | 10.0 | 0.00 | 0.00 | 0.00 | 84 | 1020.5 |
| 20260904203853 | 84 | 152 | 5.0 | 8.0 | 0.00 | 0.00 | 0.00 | 85 | 1020.6 |
| 20260904203349 | 83 | 124 | 3.0 | 8.0 | 0.00 | 0.00 | 0.00 | 86 | 1020.5 |
| 20260904202844 | 84 | 158 | 5.0 | 8.0 | 0.00 | 0.00 | 0.00 | 87 | 1020.9 |
| 20260904202340 | 83 | 183 | 7.0 | 10.0 | 0.00 | 0.00 | 0.00 | 87 | 1020.7 |
| 20260904201836 | 84 | 175 | 5.0 | 7.0 | 0.00 | 0.00 | 0.00 | 87 | 1020.9 |
| 20260904201336 | 83 | 105 | 6.0 | 8.0 | 0.00 | 0.00 | 0.00 | 87 | 1021.0 |
| 20260904200831 | 84 | 155 | 3.0 | 6.0 | 0.00 | 0.00 | 0.00 | 86 | 1021.0 |
| 20260904200329 | 84 | 146 | 2.0 | 5.0 | 0.00 | 0.00 | 0.00 | 85 | 1021.0 |
| 20260904195824 | 85 | 60 | 2.0 | 9.0 | 0.00 | 0.00 | 0.00 | 82 | 1021.1 |
| 20260904195323 | 86 | 172 | 3.0 | 8.0 | 0.00 | 0.00 | 0.00 | 79 | 1021.0 |
| 20260904194818 | 89 | 133 | 9.0 | 11.0 | 0.00 | 0.00 | 0.00 | 76 | 1020.8 |
| 20260904194317 | 90 | 98 | 4.0 | 6.0 | 0.00 | 0.00 | 0.00 | 72 | 1021.0 |
| 20260904193812 | 91 | 13 | 2.0 | 7.0 | 0.00 | 0.00 | 0.00 | 72 | 1021.1 |
| 20260904193308 | 92 | 92 | 2.0 | 5.0 | 0.00 | 0.00 | 0.00 | 71 | 1020.9 |
| 20260904192803 | 91 | 103 | 2.0 | 6.0 | 0.00 | 0.00 | 0.00 | 70 | 1021.0 |
| 20260904192258 | 91 | 113 | 1.0 | 6.0 | 0.00 | 0.00 | 0.00 | 69 | 1021.1 |
| 20260904191755 | 91 | 168 | 3.0 | 8.0 | 0.00 | 0.00 | 0.00 | 70 | 1021.0 |
| 20260904191251 | 91 | 184 | 5.0 | 6.0 | 0.00 | 0.00 | 0.00 | 70 | 1021.1 |
| 20260904190747 | 91 | 166 | 4.0 | 5.0 | 0.00 | 0.00 | 0.00 | 71 | 1021.2 |
| 20260904190243 | 90 | 117 | 3.0 | 5.0 | 0.00 | 0.00 | 0.00 | 70 | 1021.1 |
| 20260904185739 | 92 | 106 | 3.0 | 3.0 | 0.00 | 0.00 | 0.00 | 69 | 1021.2 |
| 20260904185234 | 92 | 50 | 1.0 | 3.0 | 0.00 | 0.00 | 0.00 | 68 | 1021.3 |
| 20260904184732 | 91 | 209 | 1.0 | 2.0 | 0.00 | 0.00 | 0.00 | 71 | 1021.4 |
| 20260904184229 | 90 | 108 | 1.0 | 3.0 | 0.00 | 0.00 | 0.00 | 71 | 1021.6 |
| 20260904183724 | 89 | 202 | 3.0 | 5.0 | 0.00 | 0.00 | 0.00 | 72 | 1021.5 |
| 20260904183219 | 89 | 195 | 5.0 | 5.0 | 0.00 | 0.00 | 0.00 | 73 | 1021.4 |
| 20260904182714 | 89 | 145 | 3.0 | 6.0 | 0.00 | 0.00 | 0.00 | 77 | 1021.4 |
| 20260904182209 | 89 | 169 | 3.0 | 5.0 | 0.00 | 0.00 | 0.00 | 75 | 1021.5 |
| 20260904181705 | 89 | 189 | 3.0 | 3.0 | 0.00 | 0.00 | 0.00 | 73 | 1021.4 |
| 20260904181204 | 89 | 149 | 1.0 | 3.0 | 0.00 | 0.00 | 0.00 | 73 | 1021.7 |
| 20260904180700 | 88 | 154 | 0.0 | 2.0 | 0.00 | 0.00 | 0.00 | 73 | 1021.8 |
| 20260904180155 | 88 | 214 | 5.0 | 7.0 | 0.00 | 0.00 | 0.00 | 75 | 1021.9 |
| 20260904175654 | 89 | 185 | 3.0 | 6.0 | 0.00 | 0.00 | 0.00 | 74 | 1021.9 |
| 20260904175153 | 88 | 204 | 5.0 | 6.0 | 0.00 | 0.00 | 0.00 | 74 | 1021.8 |
| 20260904174647 | 87 | 179 | 5.0 | 7.0 | 0.00 | 0.00 | 0.00 | 75 | 1022.0 |
| 20260904174144 | 88 | 189 | 5.0 | 6.0 | 0.00 | 0.00 | 0.00 | 75 | 1022.1 |
| 20260904173639 | 88 | 145 | 0.0 | 2.0 | 0.00 | 0.00 | 0.00 | 73 | 1022.4 |
| 20260904173134 | 89 | 70 | 2.0 | 3.0 | 0.00 | 0.00 | 0.00 | 72 | 1022.2 |
| 20260904172630 | 88 | 102 | 1.0 | 1.0 | 0.00 | 0.00 | 0.00 | 73 | 1022.4 |
| 20260904172130 | 90 | 91 | 2.0 | 3.0 | 0.00 | 0.00 | 0.00 | 74 | 1022.3 |
| 20260904171625 | 88 | 141 | 0.0 | 2.0 | 0.00 | 0.00 | 0.00 | 77 | 1022.3 |
| 20260904171120 | 88 | 122 | 2.0 | 3.0 | 0.00 | 0.00 | 0.00 | 76 | 1022.4 |
| 20260904170616 | 88 | 103 | 1.0 | 3.0 | 0.00 | 0.00 | 0.00 | 77 | 1022.6 |
| 20260904170112 | 88 | 114 | 1.0 | 5.0 | 0.00 | 0.00 | 0.00 | 76 | 1022.7 |
| 20260904165611 | 88 | 125 | 0.0 | 5.0 | 0.00 | 0.00 | 0.00 | 76 | 1022.7 |
| 20260904165110 | 89 | 83 | 2.0 | 2.0 | 0.00 | 0.00 | 0.00 | 74 | 1022.7 |
| 20260904164605 | 89 | 81 | 2.0 | 2.0 | 0.00 | 0.00 | 0.00 | 74 | 1022.8 |
| 20260904164100 | 90 | 104 | 1.0 | 3.0 | 0.00 | 0.00 | 0.00 | 74 | 1022.8 |
| 20260904163555 | 88 | 27 | 3.0 | 3.0 | 0.00 | 0.00 | 0.00 | 75 | 1023.1 |
| 20260904163050 | 88 | 89 | 1.0 | 3.0 | 0.00 | 0.00 | 0.00 | 76 | 1023.2 |
| 20260904162544 | 89 | 83 | 2.0 | 3.0 | 0.00 | 0.00 | 0.00 | 77 | 1023.0 |
| 20260904162040 | 88 | 117 | 1.0 | 2.0 | 0.00 | 0.00 | 0.00 | 76 | 1023.2 |
| 20260904161535 | 88 | 79 | 1.0 | 2.0 | 0.00 | 0.00 | 0.00 | 78 | 1023.3 |
| 20260904161030 | 87 | 14 | 2.0 | 3.0 | 0.00 | 0.00 | 0.00 | 75 | 1023.4 |
| 20260904160525 | 87 | 99 | 2.0 | 2.0 | 0.00 | 0.00 | 0.00 | 79 | 1023.4 |
| 20260904160021 | 86 | 86 | 1.0 | 3.0 | 0.00 | 0.00 | 0.00 | 81 | 1023.3 |
| 20260904155515 | 87 | 56 | 2.0 | 3.0 | 0.00 | 0.00 | 0.00 | 80 | 1023.3 |
| 20260904155014 | 88 | 125 | 0.0 | 1.0 | 0.00 | 0.00 | 0.00 | 79 | 1023.2 |
| 20260904154508 | 88 | 127 | 1.0 | 2.0 | 0.00 | 0.00 | 0.00 | 77 | 1023.3 |
| 20260904154003 | 87 | 38 | 4.0 | 6.0 | 0.00 | 0.00 | 0.00 | 81 | 1023.3 |
| 20260904153458 | 88 | 69 | 3.0 | 6.0 | 0.00 | 0.00 | 0.00 | 80 | 1023.1 |
| 20260904152954 | 87 | 41 | 3.0 | 5.0 | 0.00 | 0.00 | 0.00 | 81 | 1023.2 |
| 20260904152449 | 86 | 18 | 3.0 | 5.0 | 0.00 | 0.00 | 0.00 | 82 | 1023.1 |
| 20260904151949 | 85 | 161 | 0.0 | 2.0 | 0.00 | 0.00 | 0.00 | 82 | 1023.2 |
| 20260904151444 | 85 | 114 | 1.0 | 2.0 | 0.00 | 0.00 | 0.00 | 84 | 1023.0 |
| 20260904150939 | 84 | 155 | 1.0 | 1.0 | 0.00 | 0.00 | 0.00 | 86 | 1023.1 |
| 20260904150434 | 83 | 122 | 2.0 | 3.0 | 0.00 | 0.00 | 0.00 | 87 | 1023.1 |
| 20260904145931 | 83 | 330 | 3.0 | 3.0 | 0.00 | 0.00 | 0.00 | 88 | 1023.1 |
| 20260904145423 | 84 | 176 | 1.0 | 2.0 | 0.00 | 0.00 | 0.00 | 87 | 1022.9 |
| 20260904144918 | 83 | 110 | 2.0 | 2.0 | 0.00 | 0.00 | 0.00 | 88 | 1023.2 |
| 20260904144413 | 82 | 103 | 0.0 | 1.0 | 0.00 | 0.00 | 0.00 | 90 | 1023.1 |
| 20260904143909 | 82 | 112 | 1.0 | 3.0 | 0.00 | 0.00 | 0.00 | 91 | 1023.1 |
| 20260904143405 | 82 | 8 | 1.0 | 2.0 | 0.00 | 0.00 | 0.00 | 93 | 1023.1 |
| 20260904142901 | 81 | 129 | 0.0 | 2.0 | 0.00 | 0.00 | 0.00 | 96 | 1023.4 |
| 20260904142357 | 80 | 78 | 2.0 | 2.0 | 0.00 | 0.00 | 0.00 | 97 | 1023.3 |
| 20260904141856 | 80 | 123 | 1.0 | 2.0 | 0.00 | 0.00 | 0.00 | 98 | 1023.1 |
| 20260904141352 | 80 | 133 | 0.0 | 3.0 | 0.00 | 0.00 | 0.00 | 99 | 1023.2 |
| 20260904140848 | 79 | 126 | 1.0 | 2.0 | 0.00 | 0.00 | 0.00 | 99 | 1023.1 |
| 20260904140342 | 78 | 145 | 0.0 | 1.0 | 0.00 | 0.00 | 0.00 | 99 | 1023.1 |
| 20260904135837 | 78 | 119 | 1.0 | 2.0 | 0.00 | 0.00 | 0.00 | 99 | 1023.1 |
| 20260904135332 | 79 | 119 | 2.0 | 2.0 | 0.00 | 0.00 | 0.00 | 99 | 1023.0 |
| 20260904134828 | 79 | 121 | 0.0 | 0.0 | 0.00 | 0.00 | 0.00 | 99 | 1023.0 |
| 20260904134327 | 78 | 125 | 1.0 | 2.0 | 0.00 | 0.00 | 0.00 | 99 | 1023.2 |
| 20260904133822 | 78 | 162 | 1.0 | 3.0 | 0.00 | 0.00 | 0.00 | 99 | 1023.1 |
| 20260904133318 | 77 | 178 | 3.0 | 6.0 | 0.00 | 0.00 | 0.00 | 99 | 1023.3 |
| 20260904132818 | 77 | 179 | 4.0 | 5.0 | 0.00 | 0.00 | 0.00 | 99 | 1023.3 |
| 20260904132313 | 77 | 134 | 4.0 | 5.0 | 0.00 | 0.00 | 0.00 | 99 | 1023.1 |
| 20260904131812 | 77 | 92 | 1.0 | 2.0 | 0.00 | 0.00 | 0.00 | 99 | 1023.0 |
| 20260904131308 | 77 | 98 | 2.0 | 2.0 | 0.00 | 0.00 | 0.00 | 99 | 1023.1 |
| 20260904130807 | 77 | 100 | 2.0 | 3.0 | 0.00 | 0.00 | 0.00 | 99 | 1023.0 |
| 20260904130302 | 77 | 120 | 1.0 | 2.0 | 0.00 | 0.00 | 0.00 | 99 | 1023.0 |
| 20260904125757 | 76 | 118 | 1.0 | 2.0 | 0.00 | 0.00 | 0.00 | 99 | 1023.1 |
| 20260904125253 | 77 | 137 | 2.0 | 2.0 | 0.00 | 0.00 | 0.00 | 99 | 1023.1 |
| 20260904124747 | 77 | 112 | 0.0 | 0.0 | 0.00 | 0.00 | 0.00 | 99 | 1023.1 |
| 20260904124243 | 77 | 104 | 1.0 | 1.0 | 0.00 | 0.00 | 0.00 | 99 | 1022.9 |
| 20260904123738 | 77 | 119 | 0.0 | 1.0 | 0.00 | 0.00 | 0.00 | 99 | 1023.0 |
| 20260904123233 | 76 | 110 | 1.0 | 1.0 | 0.00 | 0.00 | 0.00 | 99 | 1022.9 |
| 20260904122728 | 76 | 107 | 0.0 | 1.0 | 0.00 | 0.00 | 0.00 | 99 | 1023.1 |
| 20260904122222 | 76 | 116 | 0.0 | 1.0 | 0.00 | 0.00 | 0.00 | 99 | 1023.1 |
| 20260904121718 | 76 | 103 | 0.0 | 0.0 | 0.00 | 0.00 | 0.00 | 99 | 1023.1 |
| 20260904121213 | 76 | 107 | 1.0 | 1.0 | 0.00 | 0.00 | 0.00 | 99 | 1023.0 |
| 20260904120709 | 76 | 120 | 0.0 | 1.0 | 0.00 | 0.00 | 0.00 | 99 | 1022.8 |
| 20260904120205 | 76 | 91 | 1.0 | 1.0 | 0.00 | 0.00 | 0.00 | 99 | 1022.9 |
| 20260904115701 | 76 | 105 | 1.0 | 1.0 | 0.00 | 0.00 | 0.00 | 99 | 1022.8 |
| 20260904115201 | 76 | 112 | 1.0 | 2.0 | 0.00 | 0.00 | 0.00 | 99 | 1022.6 |
| 20260904114655 | 76 | 112 | 0.0 | 1.0 | 0.00 | 0.00 | 0.00 | 99 | 1022.6 |
| 20260904114149 | 75 | 119 | 0.0 | 1.0 | 0.00 | 0.00 | 0.00 | 99 | 1022.6 |
| 20260904113644 | 75 | 110 | 1.0 | 1.0 | 0.00 | 0.00 | 0.00 | 99 | 1022.7 |
| 20260904113143 | 75 | 124 | 1.0 | 2.0 | 0.00 | 0.00 | 0.00 | 99 | 1022.5 |
| 20260904112639 | 75 | 125 | 0.0 | 0.0 | 0.00 | 0.00 | 0.00 | 99 | 1022.3 |
| 20260904112135 | 75 | 126 | 0.0 | 0.0 | 0.00 | 0.00 | 0.00 | 99 | 1022.5 |
| 20260904111630 | 75 | 128 | 0.0 | 0.0 | 0.00 | 0.00 | 0.00 | 99 | 1022.4 |
| 20260904111125 | 75 | 128 | 0.0 | 0.0 | 0.00 | 0.00 | 0.00 | 99 | 1022.4 |
| 20260904110622 | 75 | 128 | 0.0 | 0.0 | 0.00 | 0.00 | 0.00 | 99 | 1022.5 |
| 20260904110115 | 75 | 128 | 0.0 | 0.0 | 0.00 | 0.00 | 0.00 | 99 | 1022.5 |
| 20260904105615 | 75 | 128 | 0.0 | 0.0 | 0.00 | 0.00 | 0.00 | 99 | 1022.6 |
| 20260904105110 | 75 | 128 | 0.0 | 0.0 | 0.00 | 0.00 | 0.00 | 99 | 1022.6 |
| 20260904104605 | 75 | 128 | 0.0 | 0.0 | 0.00 | 0.00 | 0.00 | 99 | 1022.6 |
| 20260904104101 | 75 | 128 | 0.0 | 0.0 | 0.00 | 0.00 | 0.00 | 99 | 1022.4 |
| 20260904103556 | 74 | 128 | 0.0 | 0.0 | 0.00 | 0.00 | 0.00 | 99 | 1022.3 |
| 20260904103052 | 74 | 128 | 0.0 | 0.0 | 0.00 | 0.00 | 0.00 | 99 | 1022.4 |
| 20260904102548 | 74 | 128 | 0.0 | 0.0 | 0.00 | 0.00 | 0.00 | 99 | 1022.3 |
| 20260904102043 | 74 | 128 | 0.0 | 0.0 | 0.00 | 0.00 | 0.00 | 99 | 1022.1 |
| 20260904101539 | 74 | 128 | 0.0 | 0.0 | 0.00 | 0.00 | 0.00 | 99 | 1022.2 |
| 20260904101035 | 73 | 128 | 0.0 | 0.0 | 0.00 | 0.00 | 0.00 | 99 | 1022.0 |
| 20260904100531 | 74 | 128 | 0.0 | 0.0 | 0.00 | 0.00 | 0.00 | 99 | 1021.9 |
| 20260904100026 | 74 | 128 | 0.0 | 0.0 | 0.00 | 0.00 | 0.00 | 99 | 1021.9 |
| 20260904095520 | 74 | 128 | 0.0 | 0.0 | 0.00 | 0.00 | 0.00 | 99 | 1021.9 |
| 20260904095015 | 74 | 128 | 0.0 | 0.0 | 0.00 | 0.00 | 0.00 | 99 | 1021.8 |
| 20260904094510 | 73 | 128 | 0.0 | 0.0 | 0.00 | 0.00 | 0.00 | 99 | 1021.8 |
| 20260904094006 | 73 | 128 | 0.0 | 0.0 | 0.00 | 0.00 | 0.00 | 99 | 1021.9 |
| 20260904093503 | 73 | 128 | 0.0 | 0.0 | 0.00 | 0.00 | 0.00 | 99 | 1021.9 |
| 20260904092957 | 74 | 128 | 0.0 | 0.0 | 0.00 | 0.00 | 0.00 | 99 | 1021.8 |
| 20260904092453 | 74 | 127 | 0.0 | 0.0 | 0.00 | 0.00 | 0.00 | 99 | 1021.9 |
| 20260904091948 | 74 | 127 | 0.0 | 0.0 | 0.00 | 0.00 | 0.00 | 99 | 1021.8 |
| 20260904091444 | 74 | 127 | 0.0 | 0.0 | 0.00 | 0.00 | 0.00 | 99 | 1021.8 |
| 20260904090939 | 74 | 127 | 0.0 | 0.0 | 0.00 | 0.00 | 0.00 | 99 | 1021.8 |
| 20260904090434 | 74 | 127 | 0.0 | 0.0 | 0.00 | 0.00 | 0.00 | 99 | 1021.6 |
| 20260904085929 | 74 | 127 | 0.0 | 0.0 | 0.00 | 0.00 | 0.00 | 99 | 1021.6 |
| 20260904085425 | 74 | 127 | 0.0 | 0.0 | 0.00 | 0.00 | 0.00 | 99 | 1021.6 |
| 20260904084919 | 74 | 127 | 0.0 | 0.0 | 0.00 | 0.00 | 0.00 | 99 | 1021.4 |
| 20260904084416 | 74 | 127 | 0.0 | 0.0 | 0.00 | 0.00 | 0.00 | 99 | 1021.7 |
| 20260904083910 | 74 | 127 | 0.0 | 0.0 | 0.00 | 0.00 | 0.00 | 99 | 1021.7 |
| 20260904083407 | 75 | 127 | 0.0 | 0.0 | 0.00 | 0.00 | 0.00 | 99 | 1021.7 |
| 20260904082857 | 75 | 127 | 0.0 | 0.0 | 0.00 | 0.00 | 0.00 | 99 | 1021.8 |
| 20260904082357 | 74 | 127 | 0.0 | 0.0 | 0.00 | 0.00 | 0.00 | 99 | 1021.9 |
| 20260904081852 | 75 | 127 | 0.0 | 0.0 | 0.00 | 0.00 | 0.00 | 99 | 1021.5 |
| 20260904081347 | 75 | 127 | 0.0 | 0.0 | 0.00 | 0.00 | 0.00 | 99 | 1021.7 |
| 20260904080843 | 75 | 127 | 0.0 | 0.0 | 0.00 | 0.00 | 0.00 | 99 | 1021.8 |
| 20260904080338 | 75 | 127 | 0.0 | 0.0 | 0.00 | 0.00 | 0.00 | 99 | 1021.7 |
| 20260904075835 | 75 | 127 | 0.0 | 0.0 | 0.00 | 0.00 | 0.00 | 99 | 1021.8 |
| 20260904075330 | 75 | 127 | 0.0 | 0.0 | 0.00 | 0.00 | 0.00 | 99 | 1021.8 |
| 20260904074828 | 75 | 127 | 0.0 | 0.0 | 0.00 | 0.00 | 0.00 | 99 | 1021.6 |
| 20260904074324 | 75 | 127 | 0.0 | 0.0 | 0.00 | 0.00 | 0.00 | 99 | 1021.6 |
| 20260904073819 | 75 | 127 | 0.0 | 0.0 | 0.00 | 0.00 | 0.00 | 99 | 1021.5 |
| 20260904073315 | 75 | 127 | 0.0 | 0.0 | 0.00 | 0.00 | 0.00 | 99 | 1021.5 |
| 20260904072811 | 75 | 127 | 0.0 | 0.0 | 0.00 | 0.00 | 0.00 | 99 | 1021.4 |
| 20260904072310 | 75 | 127 | 0.0 | 0.0 | 0.00 | 0.00 | 0.00 | 99 | 1021.5 |
| 20260904071806 | 75 | 127 | 0.0 | 0.0 | 0.00 | 0.00 | 0.00 | 99 | 1021.6 |
| 20260904071300 | 75 | 127 | 0.0 | 0.0 | 0.00 | 0.00 | 0.00 | 99 | 1021.7 |
| 20260904070754 | 75 | 127 | 0.0 | 0.0 | 0.00 | 0.00 | 0.00 | 99 | 1021.5 |
| 20260904070254 | 76 | 127 | 0.0 | 0.0 | 0.00 | 0.00 | 0.00 | 99 | 1021.5 |
| 20260904065749 | 76 | 127 | 0.0 | 0.0 | 0.00 | 0.00 | 0.00 | 99 | 1021.6 |
| 20260904065246 | 76 | 127 | 0.0 | 0.0 | 0.00 | 0.00 | 0.00 | 99 | 1021.6 |
| 20260904064745 | 76 | 127 | 0.0 | 0.0 | 0.00 | 0.00 | 0.00 | 99 | 1021.5 |
| 20260904064241 | 76 | 127 | 0.0 | 0.0 | 0.00 | 0.00 | 0.00 | 99 | 1021.7 |
| 20260904063737 | 75 | 127 | 0.0 | 0.0 | 0.00 | 0.00 | 0.00 | 99 | 1021.6 |
| 20260904063233 | 76 | 127 | 0.0 | 0.0 | 0.00 | 0.00 | 0.00 | 99 | 1021.8 |
| 20260904062728 | 76 | 127 | 0.0 | 0.0 | 0.00 | 0.00 | 0.00 | 99 | 1021.7 |
| 20260904062224 | 76 | 127 | 0.0 | 0.0 | 0.00 | 0.00 | 0.00 | 99 | 1022.0 |
| 20260904061720 | 76 | 127 | 0.0 | 0.0 | 0.00 | 0.00 | 0.00 | 99 | 1021.9 |
| 20260904061216 | 76 | 127 | 0.0 | 0.0 | 0.00 | 0.00 | 0.00 | 99 | 1021.8 |
| 20260904060713 | 76 | 127 | 0.0 | 0.0 | 0.00 | 0.00 | 0.00 | 99 | 1022.2 |
| 20260904060208 | 76 | 127 | 0.0 | 0.0 | 0.00 | 0.00 | 0.00 | 99 | 1022.1 |
| 20260904055703 | 76 | 127 | 0.0 | 0.0 | 0.00 | 0.00 | 0.00 | 98 | 1022.1 |
| 20260904055158 | 76 | 127 | 0.0 | 0.0 | 0.00 | 0.00 | 0.00 | 98 | 1022.1 |
| 20260904054654 | 76 | 127 | 0.0 | 0.0 | 0.00 | 0.00 | 0.00 | 98 | 1022.3 |
| 20260904054149 | 76 | 127 | 0.0 | 0.0 | 0.00 | 0.00 | 0.00 | 98 | 1022.4 |
| 20260904053643 | 76 | 127 | 0.0 | 0.0 | 0.00 | 0.00 | 0.00 | 98 | 1022.2 |
| 20260904053138 | 76 | 127 | 1.0 | 2.0 | 0.00 | 0.00 | 0.00 | 98 | 1022.5 |
| 20260904052635 | 76 | 127 | 0.0 | 0.0 | 0.00 | 0.00 | 0.00 | 98 | 1022.5 |
| 20260904052130 | 76 | 127 | 0.0 | 1.0 | 0.00 | 0.00 | 0.00 | 98 | 1022.4 |
| 20260904051626 | 76 | 127 | 0.0 | 0.0 | 0.00 | 0.00 | 0.00 | 98 | 1022.6 |
| 20260904051121 | 76 | 127 | 0.0 | 0.0 | 0.00 | 0.00 | 0.00 | 98 | 1022.5 |
| 20260904050616 | 76 | 127 | 0.0 | 0.0 | 0.00 | 0.00 | 0.00 | 98 | 1022.3 |
| 20260904050113 | 76 | 127 | 0.0 | 1.0 | 0.00 | 0.00 | 0.00 | 97 | 1022.5 |
| 20260904045607 | 76 | 127 | 0.0 | 1.0 | 0.00 | 0.00 | 0.00 | 97 | 1022.7 |
| 20260904045102 | 77 | 127 | 0.0 | 0.0 | 0.00 | 0.00 | 0.00 | 97 | 1022.4 |
| 20260904044557 | 77 | 127 | 0.0 | 1.0 | 0.00 | 0.00 | 0.00 | 97 | 1022.7 |
| 20260904044054 | 77 | 127 | 0.0 | 1.0 | 0.00 | 0.00 | 0.00 | 97 | 1022.8 |
| 20260904043550 | 77 | 127 | 0.0 | 0.0 | 0.00 | 0.00 | 0.00 | 97 | 1022.7 |
| 20260904043046 | 77 | 127 | 0.0 | 0.0 | 0.00 | 0.00 | 0.00 | 96 | 1022.8 |
| 20260904042542 | 77 | 127 | 0.0 | 0.0 | 0.00 | 0.00 | 0.00 | 96 | 1022.8 |
| 20260904042037 | 77 | 127 | 0.0 | 0.0 | 0.00 | 0.00 | 0.00 | 96 | 1022.7 |
| 20260904041533 | 77 | 127 | 0.0 | 0.0 | 0.00 | 0.00 | 0.00 | 96 | 1022.6 |
| 20260904041029 | 77 | 127 | 1.0 | 1.0 | 0.00 | 0.00 | 0.00 | 96 | 1022.7 |
| 20260904040528 | 77 | 127 | 0.0 | 1.0 | 0.00 | 0.00 | 0.00 | 96 | 1022.8 |
| 20260904040025 | 77 | 128 | 0.0 | 1.0 | 0.00 | 0.00 | 0.00 | 95 | 1022.7 |
| 20260904035520 | 78 | 127 | 0.0 | 1.0 | 0.00 | 0.00 | 0.00 | 95 | 1022.6 |
| 20260904035019 | 78 | 128 | 0.0 | 1.0 | 0.00 | 0.00 | 0.00 | 95 | 1022.9 |
| 20260904034514 | 78 | 128 | 0.0 | 1.0 | 0.00 | 0.00 | 0.00 | 95 | 1022.9 |
| 20260904034009 | 78 | 128 | 0.0 | 1.0 | 0.00 | 0.00 | 0.00 | 95 | 1022.7 |
| 20260904033505 | 78 | 129 | 1.0 | 1.0 | 0.00 | 0.00 | 0.00 | 94 | 1022.7 |
| 20260904033003 | 78 | 129 | 0.0 | 1.0 | 0.00 | 0.00 | 0.00 | 94 | 1022.7 |
| 20260904032457 | 78 | 129 | 1.0 | 1.0 | 0.00 | 0.00 | 0.00 | 94 | 1022.9 |
| 20260904031956 | 78 | 129 | 0.0 | 1.0 | 0.00 | 0.00 | 0.00 | 94 | 1022.9 |
| 20260904031451 | 78 | 129 | 0.0 | 1.0 | 0.00 | 0.00 | 0.00 | 94 | 1022.9 |
| 20260904030948 | 78 | 129 | 1.0 | 1.0 | 0.00 | 0.00 | 0.00 | 94 | 1022.9 |
| 20260904030443 | 78 | 129 | 0.0 | 0.0 | 0.00 | 0.00 | 0.00 | 94 | 1022.9 |
| 20260904025938 | 78 | 129 | 0.0 | 0.0 | 0.00 | 0.00 | 0.00 | 94 | 1023.1 |
| 20260904025434 | 78 | 129 | 0.0 | 1.0 | 0.00 | 0.00 | 0.00 | 93 | 1023.0 |
| 20260904024934 | 78 | 129 | 0.0 | 0.0 | 0.00 | 0.00 | 0.00 | 93 | 1023.2 |
| 20260904024429 | 79 | 129 | 0.0 | 1.0 | 0.00 | 0.00 | 0.00 | 92 | 1023.1 |
| 20260904023925 | 79 | 129 | 1.0 | 1.0 | 0.00 | 0.00 | 0.00 | 91 | 1023.3 |
| 20260904023421 | 80 | 130 | 0.0 | 1.0 | 0.00 | 0.00 | 0.00 | 91 | 1023.2 |
| 20260904022920 | 80 | 130 | 2.0 | 2.0 | 0.00 | 0.00 | 0.00 | 91 | 1023.1 |
| 20260904022417 | 80 | 135 | 0.0 | 1.0 | 0.00 | 0.00 | 0.00 | 90 | 1023.4 |
| 20260904021913 | 80 | 135 | 0.0 | 1.0 | 0.00 | 0.00 | 0.00 | 90 | 1023.2 |
| 20260904021409 | 80 | 133 | 1.0 | 1.0 | 0.00 | 0.00 | 0.00 | 90 | 1023.0 |
| 20260904020903 | 80 | 133 | 0.0 | 1.0 | 0.00 | 0.00 | 0.00 | 89 | 1023.1 |
| 20260904020359 | 80 | 132 | 0.0 | 1.0 | 0.00 | 0.00 | 0.00 | 89 | 1023.0 |
| 20260904015857 | 80 | 138 | 1.0 | 1.0 | 0.00 | 0.00 | 0.00 | 89 | 1023.0 |
| 20260904015353 | 80 | 132 | 0.0 | 1.0 | 0.00 | 0.00 | 0.00 | 88 | 1023.1 |
| 20260904014851 | 81 | 132 | 1.0 | 2.0 | 0.00 | 0.00 | 0.00 | 88 | 1022.7 |
| 20260904014346 | 81 | 131 | 1.0 | 1.0 | 0.00 | 0.00 | 0.00 | 88 | 1022.8 |
| 20260904013842 | 81 | 136 | 1.0 | 1.0 | 0.00 | 0.00 | 0.00 | 87 | 1022.8 |
| 20260904013338 | 81 | 138 | 1.0 | 2.0 | 0.00 | 0.00 | 0.00 | 87 | 1022.7 |
| 20260904012834 | 81 | 124 | 1.0 | 3.0 | 0.00 | 0.00 | 0.00 | 87 | 1022.7 |
| 20260904012334 | 81 | 119 | 3.0 | 5.0 | 0.00 | 0.00 | 0.00 | 87 | 1022.3 |
| 20260904011833 | 81 | 161 | 3.0 | 5.0 | 0.00 | 0.00 | 0.00 | 87 | 1022.3 |
| 20260904011328 | 81 | 162 | 3.0 | 5.0 | 0.00 | 0.00 | 0.00 | 87 | 1022.3 |
| 20260904010823 | 81 | 148 | 3.0 | 3.0 | 0.00 | 0.00 | 0.00 | 86 | 1022.4 |
| 20260904010320 | 81 | 143 | 1.0 | 2.0 | 0.00 | 0.00 | 0.00 | 86 | 1022.5 |
| 20260904005815 | 81 | 153 | 1.0 | 1.0 | 0.00 | 0.00 | 0.00 | 86 | 1022.3 |
| 20260904005311 | 81 | 153 | 0.0 | 1.0 | 0.00 | 0.00 | 0.00 | 86 | 1022.3 |
| 20260904004806 | 81 | 154 | 0.0 | 1.0 | 0.00 | 0.00 | 0.00 | 86 | 1022.2 |
| 20260904004302 | 82 | 154 | 1.0 | 2.0 | 0.00 | 0.00 | 0.00 | 86 | 1022.2 |
| 20260904003802 | 83 | 154 | 2.0 | 2.0 | 0.00 | 0.00 | 0.00 | 83 | 1022.0 |
| 20260904003258 | 83 | 139 | 0.0 | 1.0 | 0.00 | 0.00 | 0.00 | 82 | 1021.8 |
| 20260904002753 | 83 | 148 | 2.0 | 3.0 | 0.00 | 0.00 | 0.00 | 81 | 1022.0 |
| 20260904002250 | 83 | 146 | 2.0 | 3.0 | 0.00 | 0.00 | 0.00 | 81 | 1022.0 |
| 20260904001749 | 84 | 153 | 2.0 | 3.0 | 0.00 | 0.00 | 0.00 | 80 | 1022.1 |
| 20260904001244 | 84 | 131 | 1.0 | 2.0 | 0.00 | 0.00 | 0.00 | 80 | 1022.1 |
| 20260904000739 | 84 | 142 | 2.0 | 3.0 | 0.00 | 0.00 | 0.00 | 80 | 1021.8 |
| 20260904000234 | 84 | 139 | 1.0 | 2.0 | 0.00 | 0.00 | 0.00 | 79 | 1021.8 |
| 20260903235734 | 84 | 128 | 1.0 | 3.0 | 0.00 | 0.00 | 0.00 | 78 | 1021.6 |
| 20260903235230 | 85 | 130 | 2.0 | 3.0 | 0.00 | 0.00 | 0.00 | 77 | 1021.7 |
| 20260903234729 | 85 | 145 | 2.0 | 5.0 | 0.00 | 0.00 | 0.00 | 76 | 1021.7 |
| 20260903234226 | 85 | 137 | 1.0 | 5.0 | 0.00 | 0.00 | 0.00 | 76 | 1021.4 |
| 20260903233721 | 86 | 123 | 4.0 | 6.0 | 0.00 | 0.00 | 0.00 | 75 | 1021.6 |
| 20260903233217 | 86 | 145 | 2.0 | 8.0 | 0.00 | 0.00 | 0.00 | 75 | 1021.4 |
| 20260903232716 | 86 | 138 | 3.0 | 6.0 | 0.00 | 0.00 | 0.00 | 74 | 1021.2 |
| 20260903232212 | 87 | 136 | 5.0 | 5.0 | 0.00 | 0.00 | 0.00 | 74 | 1021.2 |
| 20260903231711 | 87 | 98 | 5.0 | 7.0 | 0.00 | 0.00 | 0.00 | 73 | 1021.5 |
| 20260903231206 | 87 | 145 | 2.0 | 6.0 | 0.00 | 0.00 | 0.00 | 72 | 1021.0 |
| 20260903230702 | 87 | 165 | 3.0 | 5.0 | 0.00 | 0.00 | 0.00 | 72 | 1021.4 |
| 20260903230202 | 88 | 162 | 2.0 | 5.0 | 0.00 | 0.00 | 0.00 | 71 | 1021.2 |
| 20260903225658 | 88 | 149 | 3.0 | 7.0 | 0.00 | 0.00 | 0.00 | 70 | 1021.3 |
| 20260903225154 | 88 | 179 | 4.0 | 5.0 | 0.00 | 0.00 | 0.00 | 70 | 1021.3 |
| 20260903224650 | 88 | 136 | 7.0 | 9.0 | 0.00 | 0.00 | 0.00 | 69 | 1021.3 |
| 20260903224147 | 88 | 112 | 5.0 | 8.0 | 0.00 | 0.00 | 0.00 | 69 | 1021.3 |
| 20260903223641 | 88 | 140 | 4.0 | 9.0 | 0.00 | 0.00 | 0.00 | 69 | 1021.5 |
| 20260903223140 | 89 | 131 | 6.0 | 10.0 | 0.00 | 0.00 | 0.00 | 69 | 1021.4 |
| 20260903222635 | 89 | 158 | 5.0 | 8.0 | 0.00 | 0.00 | 0.00 | 69 | 1021.2 |
| 20260903222134 | 89 | 161 | 4.0 | 7.0 | 0.00 | 0.00 | 0.00 | 70 | 1021.3 |
| 20260903221629 | 89 | 160 | 5.0 | 6.0 | 0.00 | 0.00 | 0.00 | 69 | 1021.3 |
| 20260903221127 | 89 | 110 | 3.0 | 8.0 | 0.00 | 0.00 | 0.00 | 70 | 1021.5 |
| 20260903220621 | 89 | 162 | 4.0 | 8.0 | 0.00 | 0.00 | 0.00 | 69 | 1021.2 |
| 20260903220120 | 90 | 138 | 9.0 | 10.0 | 0.00 | 0.00 | 0.00 | 67 | 1021.3 |